| time (UTC) | temp F | wind direction | speed knots | gust knots | rain 1hr in | rain 24hr in | rain mn in | humidity % | barometer mb |
| 20260831081421 | 72 | 0 | 0.0 | 3.5 | 0.00 | 0.00 | 0.00 | 86 | 1023.2 |
| 20260831080921 | 72 | 0 | 0.0 | 1.7 | 0.00 | 0.00 | 0.00 | 86 | 1023.2 |
| 20260831080421 | 72 | 0 | 0.0 | 2.6 | 0.00 | 0.00 | 0.00 | 86 | 1023.2 |
| 20260831075922 | 72 | 0 | 0.0 | 3.5 | 0.00 | 0.00 | 0.00 | 87 | 1023.2 |
| 20260831075421 | 72 | 0 | 0.0 | 4.3 | 0.00 | 0.00 | 0.00 | 87 | 1023.1 |
| 20260831074923 | 72 | 0 | 0.0 | 9.6 | 0.00 | 0.00 | 0.00 | 87 | 1023.1 |
| 20260831074421 | 72 | 308 | 1.7 | 9.6 | 0.00 | 0.00 | 0.00 | 87 | 1023.1 |
| 20260831073921 | 72 | 306 | 2.6 | 7.8 | 0.00 | 0.00 | 0.00 | 88 | 1023.1 |
| 20260831073421 | 72 | 306 | 3.5 | 7.8 | 0.00 | 0.00 | 0.00 | 88 | 1023.1 |
| 20260831072921 | 72 | 304 | 3.5 | 7.0 | 0.00 | 0.00 | 0.00 | 88 | 1023.1 |
| 20260831072421 | 72 | 304 | 2.6 | 7.0 | 0.00 | 0.00 | 0.00 | 88 | 1023.1 |
| 20260831071921 | 72 | 303 | 1.7 | 7.0 | 0.00 | 0.00 | 0.00 | 88 | 1023.2 |
| 20260831071421 | 72 | 303 | 2.6 | 6.1 | 0.00 | 0.00 | 0.00 | 87 | 1023.2 |
| 20260831070921 | 72 | 303 | 2.6 | 6.1 | 0.00 | 0.00 | 0.00 | 87 | 1023.2 |
| 20260831070422 | 72 | 303 | 1.7 | 7.8 | 0.00 | 0.00 | 0.00 | 87 | 1023.2 |
| 20260831065922 | 73 | 303 | 2.6 | 7.8 | 0.00 | 0.00 | 0.00 | 87 | 1023.2 |
| 20260831065421 | 73 | 302 | 2.6 | 7.8 | 0.00 | 0.00 | 0.00 | 87 | 1023.2 |
| 20260831064923 | 73 | 302 | 2.6 | 7.8 | 0.00 | 0.00 | 0.00 | 87 | 1023.2 |
| 20260831064421 | 73 | 302 | 3.5 | 9.6 | 0.00 | 0.00 | 0.00 | 87 | 1023.3 |
| 20260831063922 | 73 | 302 | 4.3 | 9.6 | 0.00 | 0.00 | 0.00 | 86 | 1023.4 |
| 20260831063421 | 73 | 297 | 4.3 | 8.7 | 0.00 | 0.00 | 0.00 | 87 | 1023.4 |
| 20260831062930 | 73 | 295 | 4.3 | 8.7 | 0.00 | 0.00 | 0.00 | 86 | 1023.4 |
| 20260831062421 | 72 | 294 | 3.5 | 7.8 | 0.00 | 0.00 | 0.00 | 87 | 1023.5 |
| 20260831061921 | 72 | 288 | 4.3 | 7.8 | 0.00 | 0.00 | 0.00 | 87 | 1023.5 |
| 20260831061421 | 72 | 282 | 4.3 | 7.8 | 0.00 | 0.00 | 0.00 | 87 | 1023.6 |
| 20260831060921 | 72 | 280 | 2.6 | 7.8 | 0.00 | 0.00 | 0.00 | 88 | 1023.6 |
| 20260831060421 | 72 | 277 | 2.6 | 8.7 | 0.00 | 0.00 | 0.00 | 88 | 1023.6 |
| 20260831055922 | 72 | 277 | 2.6 | 8.7 | 0.00 | 0.00 | 0.00 | 88 | 1023.6 |
| 20260831055422 | 72 | 268 | 3.5 | 7.8 | 0.00 | 0.00 | 0.00 | 88 | 1023.7 |
| 20260831054922 | 72 | 267 | 3.5 | 7.8 | 0.00 | 0.00 | 0.00 | 89 | 1023.8 |
| 20260831054421 | 72 | 262 | 4.3 | 7.0 | 0.00 | 0.00 | 0.00 | 89 | 1023.8 |
| 20260831053921 | 72 | 254 | 2.6 | 6.1 | 0.00 | 0.00 | 0.00 | 89 | 1023.8 |
| 20260831053421 | 72 | 250 | 1.7 | 4.3 | 0.00 | 0.00 | 0.00 | 89 | 1023.8 |
| 20260831052921 | 72 | 249 | 0.9 | 4.3 | 0.00 | 0.00 | 0.00 | 89 | 1023.8 |
| 20260831052421 | 72 | 248 | 0.9 | 4.3 | 0.00 | 0.00 | 0.00 | 89 | 1023.8 |
| 20260831051921 | 72 | 0 | 0.0 | 4.3 | 0.00 | 0.00 | 0.00 | 89 | 1023.9 |
| 20260831051421 | 72 | 0 | 0.0 | 4.3 | 0.00 | 0.00 | 0.00 | 89 | 1023.9 |
| 20260831050921 | 72 | 0 | 0.0 | 3.5 | 0.00 | 0.00 | 0.00 | 89 | 1024.0 |
| 20260831050423 | 73 | 0 | 0.0 | 3.5 | 0.00 | 0.00 | 0.00 | 88 | 1023.9 |
| 20260831045921 | 72 | 0 | 0.0 | 2.6 | 0.00 | 0.00 | 0.00 | 88 | 1023.9 |
| 20260831045421 | 72 | 0 | 0.0 | 3.5 | 0.00 | 0.00 | 0.00 | 88 | 1023.9 |
| 20260831044922 | 72 | 0 | 0.0 | 3.5 | 0.00 | 0.00 | 0.00 | 88 | 1023.9 |
| 20260831044421 | 72 | 0 | 0.0 | 3.5 | 0.00 | 0.00 | 0.00 | 88 | 1024.0 |
| 20260831043921 | 72 | 0 | 0.0 | 1.7 | 0.00 | 0.00 | 0.00 | 88 | 1023.9 |
| 20260831043421 | 73 | 0 | 0.0 | 4.3 | 0.00 | 0.00 | 0.00 | 88 | 1024.0 |
| 20260831042927 | 72 | 0 | 0.0 | 4.3 | 0.00 | 0.00 | 0.00 | 88 | 1024.0 |
| 20260831042421 | 73 | 0 | 0.0 | 4.3 | 0.00 | 0.00 | 0.00 | 88 | 1024.0 |
| 20260831041923 | 73 | 0 | 0.0 | 4.3 | 0.00 | 0.00 | 0.00 | 89 | 1024.0 |
| 20260831041421 | 73 | 0 | 0.0 | 5.2 | 0.00 | 0.00 | 0.00 | 89 | 1024.1 |
| 20260831041001 | 73 | 0 | 0.0 | 5.2 | 0.00 | 0.00 | 0.00 | 88 | 1024.2 |
| 20260831040920 | 73 | 0 | 0.0 | 5.2 | 0.00 | 0.00 | 0.00 | 88 | 1024.2 |
| 20260831040423 | 73 | 0 | 0.0 | 4.3 | 0.00 | 0.00 | 0.00 | 88 | 1024.2 |
| 20260831035921 | 73 | 0 | 0.0 | 2.6 | 0.00 | 0.00 | 0.00 | 87 | 1024.3 |
| 20260831035421 | 73 | 0 | 0.0 | 2.6 | 0.00 | 0.00 | 0.00 | 87 | 1024.3 |
| 20260831034922 | 74 | 0 | 0.0 | 1.7 | 0.00 | 0.00 | 0.00 | 86 | 1024.3 |
| 20260831034421 | 74 | 0 | 0.0 | 1.7 | 0.00 | 0.00 | 0.00 | 84 | 1024.3 |
| 20260831033921 | 74 | 0 | 0.0 | 1.7 | 0.00 | 0.00 | 0.00 | 84 | 1024.3 |
| 20260831033430 | 74 | 0 | 0.0 | 1.7 | 0.00 | 0.00 | 0.00 | 84 | 1024.2 |
| 20260831032923 | 74 | 0 | 0.0 | 4.3 | 0.00 | 0.00 | 0.00 | 84 | 1024.2 |
| 20260831032421 | 74 | 0 | 0.0 | 4.3 | 0.00 | 0.00 | 0.00 | 84 | 1024.2 |
| 20260831031921 | 73 | 208 | 0.9 | 4.3 | 0.00 | 0.00 | 0.00 | 85 | 1024.2 |
| 20260831031421 | 73 | 0 | 0.0 | 5.2 | 0.00 | 0.00 | 0.00 | 85 | 1024.3 |
| 20260831030921 | 73 | 0 | 0.0 | 5.2 | 0.00 | 0.00 | 0.00 | 85 | 1024.3 |
| 20260831030421 | 73 | 0 | 0.0 | 1.7 | 0.00 | 0.00 | 0.00 | 85 | 1024.3 |
| 20260831025922 | 73 | 0 | 0.0 | 3.5 | 0.00 | 0.00 | 0.00 | 85 | 1024.4 |
| 20260831025421 | 73 | 0 | 0.0 | 3.5 | 0.00 | 0.00 | 0.00 | 85 | 1024.4 |
| 20260831024920 | 73 | 0 | 0.0 | 1.7 | 0.00 | 0.00 | 0.00 | 85 | 1024.5 |
| 20260831024421 | 73 | 0 | 0.0 | 0.9 | 0.00 | 0.00 | 0.00 | 85 | 1024.6 |
| 20260831023924 | 73 | 0 | 0.0 | 2.6 | 0.00 | 0.00 | 0.00 | 84 | 1024.6 |
| 20260831023424 | 73 | 0 | 0.0 | 2.6 | 0.00 | 0.00 | 0.00 | 85 | 1024.7 |
| 20260831022922 | 73 | 0 | 0.0 | 1.7 | 0.00 | 0.00 | 0.00 | 84 | 1024.7 |
| 20260831022421 | 74 | 0 | 0.0 | 0.9 | 0.00 | 0.00 | 0.00 | 84 | 1024.7 |
| 20260831021921 | 74 | 0 | 0.0 | 5.2 | 0.00 | 0.00 | 0.00 | 84 | 1024.6 |
| 20260831021421 | 74 | 0 | 0.0 | 5.2 | 0.00 | 0.00 | 0.00 | 84 | 1024.5 |
| 20260831020921 | 74 | 0 | 0.0 | 5.2 | 0.00 | 0.00 | 0.00 | 84 | 1024.5 |
| 20260831020422 | 74 | 0 | 0.0 | 4.3 | 0.00 | 0.00 | 0.00 | 84 | 1024.4 |
| 20260831015921 | 74 | 0 | 0.0 | 4.3 | 0.00 | 0.00 | 0.00 | 84 | 1024.5 |
| 20260831015421 | 74 | 0 | 0.0 | 4.3 | 0.00 | 0.00 | 0.00 | 84 | 1024.6 |
| 20260831014921 | 74 | 0 | 0.0 | 4.3 | 0.00 | 0.00 | 0.00 | 84 | 1024.5 |
| 20260831014421 | 74 | 0 | 0.0 | 7.0 | 0.00 | 0.00 | 0.00 | 83 | 1024.5 |
| 20260831013921 | 74 | 194 | 0.9 | 7.0 | 0.00 | 0.00 | 0.00 | 83 | 1024.4 |
| 20260831013421 | 74 | 194 | 0.9 | 5.2 | 0.00 | 0.00 | 0.00 | 83 | 1024.3 |
| 20260831012921 | 74 | 193 | 1.7 | 6.1 | 0.00 | 0.00 | 0.00 | 83 | 1024.3 |
| 20260831012421 | 74 | 193 | 0.9 | 6.1 | 0.00 | 0.00 | 0.00 | 82 | 1024.3 |
| 20260831011923 | 74 | 194 | 1.7 | 6.1 | 0.00 | 0.00 | 0.00 | 82 | 1024.2 |
| 20260831011421 | 74 | 194 | 0.9 | 6.1 | 0.00 | 0.00 | 0.00 | 82 | 1024.1 |
| 20260831010921 | 74 | 194 | 0.9 | 6.1 | 0.00 | 0.00 | 0.00 | 82 | 1024.1 |
| 20260831010420 | 75 | 0 | 0.0 | 6.1 | 0.00 | 0.00 | 0.00 | 82 | 1024.1 |
| 20260831005921 | 75 | 194 | 0.9 | 5.2 | 0.00 | 0.00 | 0.00 | 82 | 1024.0 |
| 20260831005421 | 75 | 194 | 0.9 | 5.2 | 0.00 | 0.00 | 0.00 | 82 | 1024.0 |
| 20260831004924 | 75 | 0 | 0.0 | 2.6 | 0.00 | 0.00 | 0.00 | 82 | 1024.0 |
| 20260831004421 | 75 | 0 | 0.0 | 6.1 | 0.00 | 0.00 | 0.00 | 83 | 1023.9 |
| 20260831003956 | 75 | 0 | 0.0 | 7.0 | 0.00 | 0.00 | 0.00 | 83 | 1023.7 |
| 20260831003921 | 75 | 0 | 0.0 | 7.0 | 0.00 | 0.00 | 0.00 | 83 | 1023.7 |
| 20260831003421 | 75 | 195 | 0.9 | 7.8 | 0.00 | 0.00 | 0.00 | 82 | 1023.7 |
| 20260831002922 | 75 | 195 | 2.6 | 7.8 | 0.00 | 0.00 | 0.00 | 82 | 1023.5 |
| 20260831002421 | 75 | 196 | 0.9 | 7.8 | 0.00 | 0.00 | 0.00 | 82 | 1023.6 |
| 20260831001921 | 75 | 197 | 2.6 | 7.8 | 0.00 | 0.00 | 0.00 | 83 | 1023.6 |
| 20260831001423 | 75 | 198 | 3.5 | 7.8 | 0.00 | 0.00 | 0.00 | 82 | 1023.7 |
| 20260831000921 | 75 | 195 | 3.5 | 7.8 | 0.00 | 0.00 | 0.00 | 82 | 1023.6 |
| 20260831000421 | 75 | 195 | 2.6 | 8.7 | 0.00 | 0.00 | 0.00 | 82 | 1023.6 |
| 20260830235921 | 75 | 195 | 2.6 | 8.7 | 0.00 | 0.00 | 0.00 | 82 | 1023.5 |
| 20260830235102 | 76 | 193 | 5.2 | 7.8 | 0.00 | 0.00 | 0.00 | 81 | 1023.4 |
| 20260830234541 | 76 | 0 | 0.0 | 5.2 | 0.00 | 0.00 | 0.00 | 80 | 1023.7 |
| 20260830234041 | 76 | 0 | 0.0 | 5.2 | 0.00 | 0.00 | 0.00 | 81 | 1023.7 |
| 20260830233541 | 76 | 189 | 0.9 | 4.3 | 0.00 | 0.00 | 0.00 | 81 | 1023.8 |
| 20260830233041 | 76 | 189 | 0.9 | 3.5 | 0.00 | 0.00 | 0.00 | 81 | 1023.8 |
| 20260830232542 | 76 | 0 | 0.0 | 3.5 | 0.00 | 0.00 | 0.00 | 81 | 1023.9 |
| 20260830232041 | 77 | 0 | 0.0 | 3.5 | 0.00 | 0.00 | 0.00 | 81 | 1023.9 |
| 20260830231342 | 77 | 0 | 0.0 | 2.6 | 0.00 | 0.00 | 0.00 | 80 | 1023.9 |
| 20260830230842 | 77 | 0 | 0.0 | 2.6 | 0.00 | 0.00 | 0.00 | 79 | 1023.9 |
| 20260830230344 | 77 | 0 | 0.0 | 1.7 | 0.00 | 0.00 | 0.00 | 79 | 1024.0 |
| 20260830225842 | 77 | 0 | 0.0 | 3.5 | 0.00 | 0.00 | 0.00 | 78 | 1024.0 |
| 20260830225342 | 77 | 0 | 0.0 | 3.5 | 0.00 | 0.00 | 0.00 | 78 | 1024.0 |
| 20260830224842 | 78 | 0 | 0.0 | 1.7 | 0.00 | 0.00 | 0.00 | 77 | 1023.9 |
| 20260830224342 | 78 | 0 | 0.0 | 1.7 | 0.00 | 0.00 | 0.00 | 77 | 1023.9 |
| 20260830223842 | 78 | 0 | 0.0 | 4.3 | 0.00 | 0.00 | 0.00 | 77 | 1023.9 |
| 20260830223342 | 78 | 0 | 0.0 | 4.3 | 0.00 | 0.00 | 0.00 | 77 | 1023.8 |
| 20260830222842 | 78 | 0 | 0.0 | 3.5 | 0.00 | 0.00 | 0.00 | 76 | 1023.7 |
| 20260830222342 | 78 | 0 | 0.0 | 6.1 | 0.00 | 0.00 | 0.00 | 76 | 1023.7 |
| 20260830221846 | 78 | 189 | 0.9 | 7.0 | 0.00 | 0.00 | 0.00 | 75 | 1023.7 |
| 20260830221343 | 79 | 189 | 0.9 | 7.0 | 0.00 | 0.00 | 0.00 | 75 | 1023.7 |
| 20260830220842 | 79 | 0 | 0.0 | 5.2 | 0.00 | 0.00 | 0.00 | 74 | 1023.7 |
| 20260830220343 | 79 | 0 | 0.0 | 5.2 | 0.00 | 0.00 | 0.00 | 74 | 1023.7 |
| 20260830215842 | 79 | 189 | 0.9 | 6.1 | 0.00 | 0.00 | 0.00 | 74 | 1023.7 |
| 20260830215342 | 80 | 189 | 0.9 | 6.1 | 0.00 | 0.00 | 0.00 | 74 | 1023.7 |
| 20260830214842 | 80 | 0 | 0.0 | 7.0 | 0.00 | 0.00 | 0.00 | 74 | 1023.8 |
| 20260830214342 | 80 | 189 | 0.9 | 7.0 | 0.00 | 0.00 | 0.00 | 73 | 1023.7 |
| 20260830213843 | 80 | 188 | 0.9 | 6.1 | 0.00 | 0.00 | 0.00 | 73 | 1023.7 |
| 20260830213344 | 80 | 188 | 1.7 | 6.1 | 0.00 | 0.00 | 0.00 | 73 | 1023.7 |
| 20260830212844 | 80 | 188 | 1.7 | 8.7 | 0.00 | 0.00 | 0.00 | 73 | 1023.7 |
| 20260830212342 | 80 | 187 | 0.9 | 8.7 | 0.00 | 0.00 | 0.00 | 72 | 1023.7 |
| 20260830211843 | 81 | 173 | 2.6 | 7.8 | 0.00 | 0.00 | 0.00 | 71 | 1023.7 |
| 20260830211342 | 81 | 173 | 3.5 | 7.8 | 0.00 | 0.00 | 0.00 | 72 | 1023.7 |
| 20260830210844 | 81 | 173 | 0.9 | 6.1 | 0.00 | 0.00 | 0.00 | 70 | 1023.8 |
| 20260830210331 | 80 | 173 | 1.7 | 6.1 | 0.00 | 0.00 | 0.00 | 70 | 1023.8 |
| 20260830205603 | 80 | 173 | 0.9 | 7.0 | 0.00 | 0.00 | 0.00 | 72 | 1023.7 |
| 20260830205103 | 80 | 173 | 2.6 | 7.0 | 0.00 | 0.00 | 0.00 | 69 | 1023.8 |
| 20260830204603 | 81 | 173 | 2.6 | 7.0 | 0.00 | 0.00 | 0.00 | 69 | 1023.8 |
| 20260830204105 | 81 | 173 | 1.7 | 7.0 | 0.00 | 0.00 | 0.00 | 70 | 1023.8 |
| 20260830203603 | 81 | 173 | 2.6 | 7.8 | 0.00 | 0.00 | 0.00 | 71 | 1023.8 |
| 20260830203103 | 81 | 173 | 3.5 | 7.8 | 0.00 | 0.00 | 0.00 | 68 | 1024.0 |
| 20260830202603 | 82 | 173 | 4.3 | 7.8 | 0.00 | 0.00 | 0.00 | 67 | 1024.0 |
| 20260830202103 | 82 | 175 | 1.7 | 7.0 | 0.00 | 0.00 | 0.00 | 70 | 1023.9 |
| 20260830201603 | 81 | 0 | 0.0 | 6.1 | 0.00 | 0.00 | 0.00 | 69 | 1024.0 |
| 20260830201103 | 81 | 177 | 2.6 | 6.1 | 0.00 | 0.00 | 0.00 | 69 | 1024.0 |
| 20260830200603 | 81 | 177 | 3.5 | 7.0 | 0.00 | 0.00 | 0.00 | 68 | 1024.0 |
| 20260830200103 | 81 | 177 | 4.3 | 7.0 | 0.00 | 0.00 | 0.00 | 68 | 1024.1 |
| 20260830195603 | 81 | 174 | 2.6 | 6.1 | 0.00 | 0.00 | 0.00 | 68 | 1024.2 |
| 20260830195103 | 81 | 174 | 1.7 | 6.1 | 0.00 | 0.00 | 0.00 | 68 | 1024.3 |
| 20260830194603 | 82 | 174 | 2.6 | 6.1 | 0.00 | 0.00 | 0.00 | 69 | 1024.3 |
| 20260830194104 | 82 | 174 | 0.9 | 6.1 | 0.00 | 0.00 | 0.00 | 69 | 1024.4 |
| 20260830193603 | 82 | 174 | 2.6 | 7.0 | 0.00 | 0.00 | 0.00 | 68 | 1024.4 |
| 20260830193103 | 82 | 0 | 0.0 | 7.8 | 0.00 | 0.00 | 0.00 | 69 | 1024.4 |
| 20260830192603 | 83 | 174 | 3.5 | 7.8 | 0.00 | 0.00 | 0.00 | 68 | 1024.4 |
| 20260830192103 | 83 | 182 | 1.7 | 5.2 | 0.00 | 0.00 | 0.00 | 69 | 1024.5 |
| 20260830191604 | 83 | 0 | 0.0 | 4.3 | 0.00 | 0.00 | 0.00 | 68 | 1024.5 |
| 20260830191103 | 83 | 182 | 1.7 | 4.3 | 0.00 | 0.00 | 0.00 | 68 | 1024.7 |
| 20260830190603 | 82 | 182 | 0.9 | 5.2 | 0.00 | 0.00 | 0.00 | 71 | 1024.7 |
| 20260830185603 | 82 | 182 | 2.6 | 4.3 | 0.00 | 0.00 | 0.00 | 70 | 1024.8 |
| 20260830185103 | 82 | 183 | 0.9 | 4.3 | 0.00 | 0.00 | 0.00 | 70 | 1024.9 |
| 20260830184542 | 82 | 185 | 3.5 | 6.1 | 0.00 | 0.00 | 0.00 | 68 | 1025.0 |
| 20260830182802 | 82 | 0 | 0.0 | 2.6 | 0.00 | 0.00 | 0.00 | 71 | 1025.4 |
| 20260830182306 | 82 | 0 | 0.0 | 1.7 | 0.00 | 0.00 | 0.00 | 69 | 1025.5 |
| 20260830181802 | 83 | 0 | 0.0 | 3.5 | 0.00 | 0.00 | 0.00 | 70 | 1025.6 |
| 20260830181302 | 82 | 0 | 0.0 | 3.5 | 0.00 | 0.00 | 0.00 | 71 | 1025.6 |
| 20260830180802 | 82 | 0 | 0.0 | 0.9 | 0.00 | 0.00 | 0.00 | 72 | 1025.7 |
| 20260830180039 | 81 | 185 | 0.9 | 5.2 | 0.00 | 0.00 | 0.00 | 71 | 1025.8 |
| 20260830175539 | 80 | 185 | 0.9 | 5.2 | 0.00 | 0.00 | 0.00 | 76 | 1025.9 |
| 20260830175039 | 80 | 187 | 1.7 | 5.2 | 0.00 | 0.00 | 0.00 | 76 | 1026.0 |
| 20260830174539 | 79 | 187 | 0.9 | 3.5 | 0.00 | 0.00 | 0.00 | 75 | 1026.0 |
| 20260830174040 | 79 | 0 | 0.0 | 2.6 | 0.00 | 0.00 | 0.00 | 75 | 1026.1 |
| 20260830173539 | 79 | 0 | 0.0 | 3.5 | 0.00 | 0.00 | 0.00 | 76 | 1026.1 |
| 20260830173041 | 79 | 187 | 0.9 | 3.5 | 0.00 | 0.00 | 0.00 | 74 | 1026.2 |
| 20260830172539 | 79 | 0 | 0.0 | 2.6 | 0.00 | 0.00 | 0.00 | 75 | 1026.3 |
| 20260830172040 | 78 | 0 | 0.0 | 3.5 | 0.00 | 0.00 | 0.00 | 75 | 1026.4 |
| 20260830171541 | 78 | 0 | 0.0 | 4.3 | 0.00 | 0.00 | 0.00 | 75 | 1026.4 |
| 20260830171039 | 79 | 188 | 1.7 | 5.2 | 0.00 | 0.00 | 0.00 | 75 | 1026.5 |
| 20260830170539 | 79 | 188 | 1.7 | 6.1 | 0.00 | 0.00 | 0.00 | 76 | 1026.6 |
| 20260830170039 | 79 | 190 | 1.7 | 6.1 | 0.00 | 0.00 | 0.00 | 76 | 1026.6 |
| 20260830165539 | 80 | 191 | 1.7 | 4.3 | 0.00 | 0.00 | 0.00 | 73 | 1026.7 |
| 20260830165040 | 80 | 0 | 0.0 | 3.5 | 0.00 | 0.00 | 0.00 | 76 | 1026.7 |
| 20260830164539 | 79 | 0 | 0.0 | 4.3 | 0.00 | 0.00 | 0.00 | 77 | 1026.8 |
| 20260830164041 | 79 | 191 | 0.9 | 4.3 | 0.00 | 0.00 | 0.00 | 75 | 1026.8 |
| 20260830163539 | 78 | 0 | 0.0 | 4.3 | 0.00 | 0.00 | 0.00 | 79 | 1026.9 |
| 20260830163040 | 77 | 191 | 1.7 | 4.3 | 0.00 | 0.00 | 0.00 | 80 | 1026.9 |
| 20260830162539 | 76 | 191 | 0.9 | 4.3 | 0.00 | 0.00 | 0.00 | 82 | 1026.9 |
| 20260830162040 | 75 | 0 | 0.0 | 4.3 | 0.00 | 0.00 | 0.00 | 86 | 1026.9 |
| 20260830161539 | 75 | 0 | 0.0 | 2.6 | 0.00 | 0.00 | 0.00 | 85 | 1026.9 |
| 20260830161016 | 74 | 191 | 0.9 | 4.3 | 0.00 | 0.00 | 0.00 | 84 | 1026.9 |
| 20260830155817 | 74 | 191 | 1.7 | 3.5 | 0.00 | 0.00 | 0.00 | 87 | 1027.0 |
| 20260830155306 | 74 | 0 | 0.0 | 0.0 | 0.00 | 0.00 | 0.00 | 85 | 1027.0 |
| 20260830154805 | 74 | 0 | 0.0 | 0.0 | 0.00 | 0.00 | 0.00 | 85 | 1027.0 |
| 20260830154304 | 74 | 0 | 0.0 | 0.0 | 0.00 | 0.00 | 0.00 | 87 | 1027.0 |
| 20260830153804 | 73 | 0 | 0.0 | 0.0 | 0.00 | 0.00 | 0.00 | 88 | 1027.0 |
| 20260830153304 | 73 | 0 | 0.0 | 0.0 | 0.00 | 0.00 | 0.00 | 88 | 1027.0 |
| 20260830152804 | 73 | 0 | 0.0 | 0.0 | 0.00 | 0.00 | 0.00 | 89 | 1027.0 |
| 20260830152306 | 72 | 0 | 0.0 | 0.0 | 0.00 | 0.00 | 0.00 | 88 | 1027.1 |
| 20260830151804 | 72 | 0 | 0.0 | 0.0 | 0.00 | 0.00 | 0.00 | 89 | 1027.1 |
| 20260830151304 | 72 | 0 | 0.0 | 0.0 | 0.00 | 0.00 | 0.00 | 91 | 1027.1 |
| 20260830150804 | 71 | 0 | 0.0 | 0.0 | 0.00 | 0.00 | 0.00 | 91 | 1027.0 |
| 20260830150304 | 71 | 0 | 0.0 | 0.0 | 0.00 | 0.00 | 0.00 | 91 | 1027.1 |
| 20260830145806 | 71 | 0 | 0.0 | 2.6 | 0.00 | 0.00 | 0.00 | 91 | 1027.1 |
| 20260830145307 | 72 | 0 | 0.0 | 2.6 | 0.00 | 0.00 | 0.00 | 91 | 1027.1 |
| 20260830144806 | 72 | 0 | 0.0 | 0.0 | 0.00 | 0.00 | 0.00 | 91 | 1027.1 |
| 20260830144304 | 72 | 0 | 0.0 | 0.0 | 0.00 | 0.00 | 0.00 | 90 | 1027.1 |
| 20260830143804 | 71 | 0 | 0.0 | 0.0 | 0.00 | 0.00 | 0.00 | 90 | 1027.1 |
| 20260830143304 | 71 | 0 | 0.0 | 2.6 | 0.00 | 0.00 | 0.00 | 91 | 1027.1 |
| 20260830142804 | 72 | 0 | 0.0 | 4.3 | 0.00 | 0.00 | 0.00 | 89 | 1027.1 |
| 20260830142306 | 73 | 191 | 0.9 | 5.2 | 0.00 | 0.00 | 0.00 | 88 | 1027.1 |
| 20260830141804 | 74 | 191 | 1.7 | 5.2 | 0.00 | 0.00 | 0.00 | 89 | 1027.0 |
| 20260830141304 | 73 | 191 | 1.7 | 5.2 | 0.00 | 0.00 | 0.00 | 88 | 1027.0 |
| 20260830140804 | 73 | 191 | 2.6 | 5.2 | 0.00 | 0.00 | 0.00 | 89 | 1027.0 |
| 20260830140304 | 72 | 191 | 2.6 | 5.2 | 0.00 | 0.00 | 0.00 | 89 | 1027.0 |
| 20260830135804 | 73 | 191 | 2.6 | 6.1 | 0.00 | 0.00 | 0.00 | 91 | 1026.9 |
| 20260830135306 | 72 | 191 | 3.5 | 6.1 | 0.00 | 0.00 | 0.00 | 92 | 1027.0 |
| 20260830134804 | 72 | 0 | 0.0 | 5.2 | 0.00 | 0.00 | 0.00 | 94 | 1027.1 |
| 20260830134304 | 72 | 191 | 1.7 | 5.2 | 0.00 | 0.00 | 0.00 | 94 | 1027.2 |
| 20260830133806 | 71 | 191 | 1.7 | 4.3 | 0.00 | 0.00 | 0.00 | 98 | 1027.1 |
| 20260830133304 | 70 | 191 | 0.9 | 4.3 | 0.00 | 0.00 | 0.00 | 98 | 1027.2 |
| 20260830132805 | 69 | 0 | 0.0 | 0.0 | 0.00 | 0.00 | 0.00 | 98 | 1027.1 |
| 20260830132306 | 69 | 0 | 0.0 | 0.0 | 0.00 | 0.00 | 0.00 | 99 | 1027.2 |
| 20260830131804 | 69 | 0 | 0.0 | 0.0 | 0.00 | 0.00 | 0.00 | 99 | 1027.2 |
| 20260830131304 | 69 | 0 | 0.0 | 0.0 | 0.00 | 0.00 | 0.00 | 99 | 1027.3 |
| 20260830130804 | 68 | 0 | 0.0 | 0.0 | 0.00 | 0.00 | 0.00 | 99 | 1027.3 |
| 20260830130305 | 68 | 0 | 0.0 | 0.0 | 0.00 | 0.00 | 0.00 | 99 | 1027.3 |
| 20260830125804 | 68 | 0 | 0.0 | 0.0 | 0.00 | 0.00 | 0.00 | 99 | 1027.3 |
| 20260830125306 | 68 | 0 | 0.0 | 0.0 | 0.00 | 0.00 | 0.00 | 99 | 1027.3 |
| 20260830124805 | 68 | 0 | 0.0 | 0.0 | 0.00 | 0.00 | 0.00 | 99 | 1027.3 |
| 20260830124304 | 68 | 0 | 0.0 | 0.0 | 0.00 | 0.00 | 0.00 | 99 | 1027.2 |
| 20260830123806 | 68 | 0 | 0.0 | 0.0 | 0.00 | 0.00 | 0.00 | 99 | 1027.2 |
| 20260830123304 | 68 | 0 | 0.0 | 0.0 | 0.00 | 0.00 | 0.00 | 99 | 1027.1 |
| 20260830122804 | 68 | 0 | 0.0 | 0.0 | 0.00 | 0.00 | 0.00 | 99 | 1027.1 |
| 20260830122306 | 68 | 0 | 0.0 | 1.7 | 0.00 | 0.00 | 0.00 | 99 | 1027.0 |
| 20260830121804 | 68 | 0 | 0.0 | 1.7 | 0.00 | 0.00 | 0.00 | 99 | 1027.0 |
| 20260830121304 | 68 | 0 | 0.0 | 0.9 | 0.00 | 0.00 | 0.00 | 99 | 1026.9 |
| 20260830120805 | 68 | 0 | 0.0 | 1.7 | 0.00 | 0.00 | 0.00 | 99 | 1026.9 |
| 20260830120304 | 68 | 0 | 0.0 | 1.7 | 0.00 | 0.00 | 0.00 | 99 | 1026.8 |
| 20260830115804 | 68 | 0 | 0.0 | 0.0 | 0.00 | 0.00 | 0.00 | 99 | 1026.8 |
| 20260830115306 | 68 | 0 | 0.0 | 0.0 | 0.00 | 0.00 | 0.00 | 99 | 1026.8 |
| 20260830114804 | 68 | 0 | 0.0 | 0.0 | 0.00 | 0.00 | 0.00 | 99 | 1026.8 |
| 20260830114304 | 68 | 0 | 0.0 | 0.0 | 0.00 | 0.00 | 0.00 | 99 | 1026.7 |
| 20260830113805 | 68 | 0 | 0.0 | 0.0 | 0.00 | 0.00 | 0.00 | 99 | 1026.7 |
| 20260830113255 | 68 | 0 | 0.0 | 0.0 | 0.00 | 0.00 | 0.00 | 99 | 1026.7 |
| 20260830112403 | 68 | 0 | 0.0 | 0.0 | 0.00 | 0.00 | 0.00 | 99 | 1026.6 |
| 20260830111605 | 68 | 0 | 0.0 | 0.0 | 0.00 | 0.00 | 0.00 | 99 | 1026.4 |
| 20260830111051 | 68 | 0 | 0.0 | 0.0 | 0.00 | 0.00 | 0.00 | 99 | 1026.4 |
| 20260830110516 | 67 | 0 | 0.0 | 0.0 | 0.00 | 0.00 | 0.00 | 99 | 1026.2 |
| 20260830105953 | 67 | 0 | 0.0 | 0.0 | 0.00 | 0.00 | 0.00 | 99 | 1026.3 |
| 20260830105258 | 67 | 0 | 0.0 | 0.0 | 0.00 | 0.00 | 0.00 | 99 | 1026.1 |
| 20260830104756 | 68 | 0 | 0.0 | 0.0 | 0.00 | 0.00 | 0.00 | 99 | 1026.0 |
| 20260830104254 | 68 | 0 | 0.0 | 0.0 | 0.00 | 0.00 | 0.00 | 99 | 1025.9 |
| 20260830103754 | 68 | 0 | 0.0 | 0.0 | 0.00 | 0.00 | 0.00 | 99 | 1025.9 |
| 20260830103254 | 68 | 0 | 0.0 | 0.0 | 0.00 | 0.00 | 0.00 | 98 | 1025.8 |
| 20260830102754 | 68 | 0 | 0.0 | 0.0 | 0.00 | 0.00 | 0.00 | 98 | 1025.8 |
| 20260830102255 | 68 | 0 | 0.0 | 0.0 | 0.00 | 0.00 | 0.00 | 98 | 1025.8 |
| 20260830101754 | 68 | 0 | 0.0 | 0.0 | 0.00 | 0.00 | 0.00 | 98 | 1025.7 |
| 20260830101257 | 68 | 0 | 0.0 | 0.0 | 0.00 | 0.00 | 0.00 | 98 | 1025.7 |
| 20260830100754 | 68 | 0 | 0.0 | 0.0 | 0.00 | 0.00 | 0.00 | 98 | 1025.7 |
| 20260830100254 | 68 | 0 | 0.0 | 0.0 | 0.00 | 0.00 | 0.00 | 98 | 1025.7 |
| 20260830095754 | 68 | 0 | 0.0 | 0.0 | 0.00 | 0.00 | 0.00 | 98 | 1025.6 |
| 20260830095257 | 68 | 0 | 0.0 | 0.0 | 0.00 | 0.00 | 0.00 | 99 | 1025.7 |
| 20260830094754 | 68 | 0 | 0.0 | 0.0 | 0.00 | 0.00 | 0.00 | 99 | 1025.7 |
| 20260830094254 | 68 | 0 | 0.0 | 0.0 | 0.00 | 0.00 | 0.00 | 98 | 1025.6 |
| 20260830093754 | 68 | 0 | 0.0 | 0.0 | 0.00 | 0.00 | 0.00 | 98 | 1025.6 |
| 20260830093254 | 68 | 0 | 0.0 | 0.0 | 0.00 | 0.00 | 0.00 | 98 | 1025.6 |
| 20260830092754 | 68 | 0 | 0.0 | 0.0 | 0.00 | 0.00 | 0.00 | 98 | 1025.6 |
| 20260830092258 | 68 | 0 | 0.0 | 0.0 | 0.00 | 0.00 | 0.00 | 98 | 1025.6 |
| 20260830091754 | 68 | 0 | 0.0 | 0.0 | 0.00 | 0.00 | 0.00 | 98 | 1025.6 |
| 20260830091254 | 68 | 0 | 0.0 | 0.0 | 0.00 | 0.00 | 0.00 | 98 | 1025.6 |
| 20260830090755 | 68 | 0 | 0.0 | 0.9 | 0.00 | 0.00 | 0.00 | 98 | 1025.6 |
| 20260830090254 | 68 | 0 | 0.0 | 2.6 | 0.00 | 0.00 | 0.00 | 98 | 1025.6 |
| 20260830085754 | 68 | 0 | 0.0 | 5.2 | 0.00 | 0.00 | 0.00 | 97 | 1025.6 |
| 20260830085258 | 68 | 191 | 0.9 | 5.2 | 0.00 | 0.00 | 0.00 | 97 | 1025.6 |
| 20260830084754 | 68 | 0 | 0.0 | 3.5 | 0.00 | 0.00 | 0.00 | 97 | 1025.6 |
| 20260830084255 | 68 | 0 | 0.0 | 3.5 | 0.00 | 0.00 | 0.00 | 96 | 1025.6 |
| 20260830083720 | 68 | 191 | 0.9 | 4.3 | 0.00 | 0.00 | 0.00 | 95 | 1025.7 |
| 20260830083157 | 68 | 0 | 0.0 | 4.3 | 0.00 | 0.00 | 0.00 | 95 | 1025.7 |
| 20260830082657 | 68 | 191 | 0.9 | 4.3 | 0.00 | 0.00 | 0.00 | 95 | 1025.7 |
| 20260830082157 | 67 | 0 | 0.0 | 0.0 | 0.00 | 0.00 | 0.00 | 95 | 1025.6 |
| 20260830081657 | 67 | 0 | 0.0 | 0.0 | 0.00 | 0.00 | 0.00 | 95 | 1025.6 |